DW8249 Weather Reports


time (UTC)temp
F
wind
direction
speed
knots
gust
knots
rain 1hr
in
rain 24hr
in
rain mn
in
humidity
%
barometer
mb
20260507114538 31 261 0.0 0.0 0.00 0.00 0.00 84 1014.1
20260507113035 30 261 0.0 0.0 0.00 0.00 0.00 81 1014.1
20260507111534 31 261 0.0 0.0 0.00 0.00 0.00 81 1014.1
20260507110045 31 261 0.0 0.0 0.00 0.00 0.00 79 1014.0
20260507104530 32 261 0.0 0.0 0.00 0.00 0.00 79 1014.1
20260507103030 32 261 0.0 0.0 0.00 0.00 0.00 79 1014.1
20260507101533 32 261 0.0 0.0 0.00 0.00 0.00 78 1014.2
20260507100029 32 261 0.0 0.0 0.00 0.00 0.00 78 1014.1
20260507094524 33 261 0.0 0.0 0.00 0.00 0.00 77 1014.2
20260507093022 33 261 0.0 0.0 0.00 0.00 0.00 75 1014.2
20260507091520 34 261 0.0 0.0 0.00 0.00 0.00 74 1014.2
20260507090030 34 261 0.0 0.0 0.00 0.00 0.00 74 1014.2
20260507084530 34 261 0.0 0.0 0.00 0.00 0.00 73 1014.3
20260507083016 34 261 0.0 0.0 0.00 0.00 0.00 72 1014.4
20260507081515 34 261 0.0 0.0 0.00 0.00 0.00 72 1014.3
20260507080013 35 261 0.0 0.0 0.00 0.00 0.00 70 1014.2
20260507074523 36 261 0.0 0.0 0.00 0.00 0.00 70 1014.2
20260507073008 36 261 0.0 0.0 0.00 0.00 0.00 69 1014.2
20260507071505 37 261 0.0 0.0 0.00 0.00 0.00 67 1014.4
20260507070009 37 261 0.0 0.0 0.00 0.00 0.00 66 1014.5
20260507064601 37 261 0.0 0.0 0.00 0.00 0.00 66 1014.7
20260507063100 38 259 0.0 1.7 0.00 0.00 0.00 65 1014.9
20260507061559 38 258 0.0 0.9 0.00 0.00 0.00 65 1015.1
20260507060110 38 254 0.0 1.7 0.00 0.00 0.00 65 1015.1
20260507054558 38 250 0.0 0.9 0.00 0.00 0.00 65 1015.2
20260507053055 38 248 0.0 1.7 0.00 0.00 0.00 66 1015.2
20260507051551 38 263 0.0 0.0 0.00 0.00 0.00 64 1015.3
20260507050049 39 263 0.0 0.9 0.00 0.00 0.00 63 1015.4
20260507044549 39 263 0.0 0.0 0.00 0.00 0.00 62 1015.6
20260507043048 39 263 0.0 0.0 0.00 0.00 0.00 62 1015.6
20260507041548 39 262 0.0 0.0 0.00 0.00 0.00 62 1015.8
20260507040047 39 262 0.0 1.7 0.00 0.00 0.00 61 1015.8
20260507034555 39 261 0.0 2.6 0.00 0.00 0.00 62 1015.8
20260507033047 39 261 0.0 0.0 0.00 0.00 0.00 62 1016.0
20260507031546 39 261 0.0 0.0 0.00 0.00 0.00 61 1016.0
20260507030045 40 260 0.0 0.0 0.00 0.00 0.00 61 1016.0
20260507024554 40 260 0.0 0.0 0.00 0.00 0.00 61 1016.1
20260507023043 40 260 0.0 1.7 0.00 0.00 0.00 61 1016.1
20260507021548 40 259 0.0 1.7 0.00 0.00 0.00 60 1016.0
20260507020051 40 263 0.0 1.7 0.00 0.00 0.00 59 1016.0
20260507014545 40 259 0.0 4.3 0.00 0.00 0.00 59 1015.9
20260507013041 40 264 2.6 7.0 0.00 0.00 0.00 58 1015.9
20260507011545 40 267 0.9 3.5 0.00 0.00 0.00 59 1015.9
20260507010049 40 269 0.0 1.7 0.00 0.00 0.00 59 1016.0
20260507004539 41 275 3.5 7.0 0.00 0.00 0.00 57 1016.0
20260507003040 41 263 0.9 5.2 0.00 0.00 0.00 58 1016.0
20260507001546 41 259 2.6 8.7 0.00 0.00 0.00 57 1016.0
20260507000038 41 267 0.9 7.0 0.00 0.00 0.00 57 1016.1
20260506234538 41 281 3.5 7.8 0.00 0.00 0.00 56 1016.1
20260506233038 41 302 3.5 9.6 0.00 0.00 0.00 55 1016.1
20260506231538 41 279 1.7 7.8 0.00 0.00 0.00 55 1016.3
20260506230043 41 267 0.9 9.6 0.00 0.00 0.00 56 1016.4
20260506224535 41 261 1.7 7.8 0.00 0.00 0.00 56 1016.5
20260506223036 41 261 5.2 8.7 0.00 0.00 0.00 55 1016.5
20260506221542 41 249 3.5 7.0 0.00 0.00 0.00 56 1016.5
20260506220044 41 242 3.5 6.1 0.00 0.00 0.00 56 1016.6
20260506214533 41 228 5.2 8.7 0.00 0.00 0.00 56 1016.6
20260506213035 41 235 4.3 11.3 0.00 0.00 0.00 56 1016.7
20260506211537 41 286 3.5 11.3 0.00 0.00 0.00 54 1016.7
20260506210030 41 281 3.5 12.2 0.00 0.00 0.00 56 1016.8
20260506204529 40 200 7.8 13.9 0.00 0.00 0.00 56 1016.8
20260506203029 41 261 4.3 9.6 0.00 0.00 0.00 57 1016.9
20260506201528 41 229 5.2 12.2 0.00 0.00 0.00 55 1016.9
20260506200026 41 240 4.3 14.8 0.00 0.00 0.00 56 1016.8
20260506194525 40 243 5.2 11.3 0.00 0.00 0.00 55 1017.0
20260506193031 40 265 2.6 9.6 0.00 0.00 0.00 55 1017.0
20260506191523 40 252 4.3 11.3 0.00 0.00 0.00 57 1017.1
20260506190022 39 275 5.2 10.4 0.00 0.00 0.00 57 1017.1
20260506184524 39 279 7.0 10.4 0.00 0.00 0.00 56 1017.0
20260506183019 39 243 6.1 9.6 0.00 0.00 0.00 58 1017.1
20260506181517 39 253 7.0 11.3 0.00 0.00 0.00 57 1017.2
20260506180017 39 263 4.3 11.3 0.00 0.00 0.00 59 1017.2
20260506174514 39 305 1.7 6.1 0.00 0.00 0.00 59 1017.3
20260506173013 38 276 1.7 7.0 0.00 0.00 0.00 61 1017.4
20260506171509 37 244 0.9 7.8 0.00 0.00 0.00 61 1017.5
20260506170011 38 265 0.9 5.2 0.00 0.00 0.00 61 1017.6
20260506164507 38 288 0.0 8.7 0.00 0.00 0.00 61 1017.7
20260506163008 37 282 2.6 7.8 0.00 0.00 0.00 61 1017.7
20260506161503 37 286 1.7 7.0 0.00 0.00 0.00 62 1017.8
20260506160001 37 292 0.9 5.2 0.00 0.00 0.00 63 1017.9
20260506154602 36 313 0.0 6.1 0.00 0.00 0.00 63 1017.8
20260506153059 36 265 0.9 3.5 0.00 0.00 0.00 63 1017.7
20260506151559 36 304 0.0 7.8 0.00 0.00 0.00 63 1017.7
20260506144611 36 312 0.0 3.5 0.00 0.00 0.00 63 1017.7
20260506143056 36 281 0.9 4.3 0.00 0.00 0.00 63 1017.6
20260506141554 36 255 2.6 7.0 0.00 0.00 0.00 62 1017.5
20260506140106 36 306 0.0 2.6 0.00 0.00 0.00 63 1017.4
20260506134553 35 298 0.0 3.5 0.00 0.00 0.00 63 1017.3
20260506133107 35 281 0.0 4.3 0.00 0.00 0.00 64 1017.3
20260506131548 35 256 0.0 2.6 0.00 0.00 0.00 64 1017.2
20260506130124 35 283 0.0 4.3 0.00 0.00 0.00 65 1017.1
20260506124548 35 314 0.0 0.9 0.00 0.00 0.00 66 1016.9
20260506123047 35 10 0.0 0.0 0.00 0.00 0.00 66 1016.9
20260506121551 34 24 0.0 0.0 0.00 0.00 0.00 66 1016.7
20260506120041 34 24 0.0 0.0 0.00 0.00 0.00 65 1016.5